616  
ASUS43 KLMK 302102  
RWRKY  
KENTUCKY REGIONAL WEATHER ROUNDUP  
NATIONAL WEATHER SERVICE LOUISVILLE KY  
500 PM EDT THU JUL 30 2015  
 
NOTE "FAIR" INDICATES FEW OR NO CLOUDS BELOW 12,000 FEET  
WITH NO SIGNIFICANT WEATHER AND/OR S TO VISIBILITY
.  
 
KYZ001>023-026-027-061>063-070>075-302200-  
WESTERN AND SOUTH CENTRAL KENTUCKY  
 
CITY SKY/WX TMP DP RH WIND PRES REMARKS
 
PADUCAH SUNNY 87 60 40 N10 30.10F  
HENDERSON SUNNY 84 59 42 N5 30.08F  
OWENSBORO SUNNY 87 59 38 N12 30.09F  
HOPKINSVILLE SUNNY 85 63 47 N8 30.08F  
BOWLING GREEN SUNNY 87 60 40 N8 30.08F  
GLASGOW NOT AVBL  

 
 
KYZ024-025-028>034-038-045-046-053-302200-  
NORTH CENTRAL KENTUCKY  
 
CITY SKY/WX TMP DP RH WIND PRES REMARKS
 
LOUISVILLE/SDF MOSUNNY 87 57 35 NW13 30.06F  
LOUISVILLE/LOU SUNNY 88 56 33 NW12G17 30.07F  
FORT KNOX SUNNY 84 59 43 NW9 30.06F  

 
 
KYZ035>037-039>044-047>052-055>060-089>105-302200-  
NORTHEAST KENTUCKY  
 
CITY SKY/WX TMP DP RH WIND PRES REMARKS
 
LEXINGTON SUNNY 84 61 45 NW12 30.07F  
COVINGTON MOSUNNY 84 50 30 NW14G21 30.06F  
FRANKFORT SUNNY 84 58 40 VRB5 30.06F  

 
 
KYZ054-064>069-076>088-106>120-302200-  
SOUTHEAST KENTUCKY  
 
CITY SKY/WX TMP DP RH WIND PRES REMARKS
 
JACKSON SUNNY 84 62 47 VRB7 30.05F  
LONDON SUNNY 86 60 41 NW7 30.06F  
SOMERSET NOT AVBL  
MIDDLESBORO MOSUNNY 86 68 54 N7 30.02F  
MONTICELLO CLEAR 86 68 54 NW9 30.09F  

 
 
CLICK HERE TO GO TO PREVIOUS BULLETINS.

The Nexlab KY Page Main Text Page